This is the latest recevied weather packets stored in our database for station/object N6DZK. If no packets are shown the sender has not sent any weather packets the latest 10 day(s).
| Time | Temp. | Humidity | Pressure | Rain* | Wind** | Luminosity | Snow |
|---|---|---|---|---|---|---|---|
| 1777502036 | 28.33° C | 34% | 1015.4 hPa | 0 mm | - | 790 W/m² | - |
| 1777501733 | 27.78° C | 34% | 1015.7 hPa | 0 mm | - | 791 W/m² | - |
| 1777501430 | 28.33° C | 38% | 1015.3 hPa | 0 mm | - | 796 W/m² | - |
| 1777501127 | 28.33° C | 36% | 1015.7 hPa | 0 mm | - | 847 W/m² | - |
| 1777500826 | 28.89° C | 37% | 1015.8 hPa | 0 mm | - | 835 W/m² | - |
| 1777500523 | 28.89° C | 36% | 1015.9 hPa | 0 mm | - | 862 W/m² | - |
| 1777500219 | 28.33° C | 37% | 1015.9 hPa | 0 mm | - | 860 W/m² | - |
| 1777499916 | 27.78° C | 40% | 1015.8 hPa | 0 mm | - | 855 W/m² | - |
| 1777499612 | 27.78° C | 37% | 1015.9 hPa | 0 mm | - | 861 W/m² | - |
| 1777499309 | 28.33° C | 38% | 1015.8 hPa | 0 mm | - | 871 W/m² | - |
| 1777499007 | 27.22° C | 37% | 1015.9 hPa | 0 mm | - | 849 W/m² | - |
| 1777498703 | 27.22° C | 37% | 1016 hPa | 0 mm | - | 901 W/m² | - |
| 1777498400 | 27.78° C | 34% | 1016.1 hPa | 0 mm | - | 910 W/m² | - |
| 1777498097 | 28.33° C | 34% | 1016.1 hPa | 0 mm | - | 936 W/m² | - |
| 1777497794 | 28.33° C | 35% | 1016.1 hPa | 0 mm | - | 934 W/m² | - |
| 1777497490 | 27.22° C | 40% | 1016.1 hPa | 0 mm | - | 947 W/m² | - |
| 1777497187 | 27.78° C | 34% | 1016.1 hPa | 0 mm | - | 967 W/m² | - |
| 1777496883 | 27.78° C | 35% | 1016.1 hPa | 0 mm | - | 975 W/m² | - |
| 1777496581 | 27.22° C | 36% | 1016.3 hPa | 0 mm | - | 974 W/m² | - |
| 1777496276 | 27.22° C | 40% | 1016.3 hPa | 0 mm | - | 971 W/m² | - |
| 1777495972 | 26.67° C | 37% | 1016.2 hPa | 0 mm | - | 975 W/m² | - |
| 1777495669 | 27.22° C | 35% | 1016.5 hPa | 0 mm | - | 974 W/m² | - |
| 1777495364 | 26.67° C | 36% | 1016.3 hPa | 0 mm | - | 974 W/m² | - |
| 1777495062 | 26.67° C | 35% | 1016.4 hPa | 0 mm | - | 975 W/m² | - |
| 1777494759 | 26.67° C | 39% | 1016.7 hPa | 0 mm | - | 982 W/m² | - |
* Rain latest hour (hover to see other rain measurements)
** Current wind speed in m/s (hover to see current wind gust speed)